Météo par heure à Aliseda

Ce jour, 15 Mai, Samedi

Heure Température Précipitation Vent Pression Humidité
00:00 +13°C° 0 mm 1 m/s 724 mmHg 77%
01:00 +12°C° 0 mm 1 m/s 724 mmHg 79%
02:00 +12°C° 0 mm 1 m/s 723 mmHg 82%
03:00 +12°C° 0 mm 1 m/s 723 mmHg 84%
04:00 +12°C° 0 mm 1 m/s 723 mmHg 84%
05:00 +12°C° 0 mm 1 m/s 723 mmHg 83%
06:00 +12°C° 0 mm 1 m/s 724 mmHg 84%
07:00 +14°C° 0 mm 1 m/s 724 mmHg 74%
08:00 +18°C° 0 mm 1 m/s 724 mmHg 64%
09:00 +19°C° 0 mm 2 m/s 724 mmHg 54%
10:00 +21°C° 0 mm 2 m/s 724 mmHg 50%
11:00 +24°C° 0 mm 3 m/s 724 mmHg 47%
12:00 +26°C° 0 mm 3 m/s 724 mmHg 43%
13:00 +26°C° 0 mm 4 m/s 724 mmHg 41%
14:00 +27°C° 0 mm 5 m/s 724 mmHg 39%
15:00 +28°C° 0 mm 5 m/s 724 mmHg 38%
16:00 +27°C° 0 mm 5 m/s 724 mmHg 42%
17:00 +26°C° 0 mm 5 m/s 723 mmHg 46%
18:00 +25°C° 0 mm 5 m/s 723 mmHg 51%
19:00 +21°C° 0 mm 4 m/s 723 mmHg 58%
20:00 +19°C° 0 mm 3 m/s 724 mmHg 66%
21:00 +17°C° 0 mm 3 m/s 724 mmHg 74%
22:00 +16°C° 0 mm 2 m/s 724 mmHg 79%
23:00 +16°C° 0 mm 2 m/s 724 mmHg 83%

Demain, 16 Mai, Dimanche

Heure Température Précipitation Vent Pression Humidité
00:00 +15°C° 0 mm 2 m/s 723 mmHg 87%
01:00 +15°C° 0 mm 2 m/s 723 mmHg 89%
02:00 +14°C° 0 mm 2 m/s 723 mmHg 91%
03:00 +14°C° 0 mm 1 m/s 723 mmHg 92%
04:00 +14°C° 0 mm 1 m/s 723 mmHg 92%
05:00 +14°C° 0 mm 1 m/s 723 mmHg 91%
06:00 +14°C° 0 mm 1 m/s 723 mmHg 91%
07:00 +16°C° 0 mm 2 m/s 723 mmHg 82%
08:00 +18°C° 0 mm 3 m/s 723 mmHg 74%
09:00 +20°C° 0 mm 3 m/s 724 mmHg 66%
10:00 +22°C° 0 mm 4 m/s 724 mmHg 60%
11:00 +25°C° 0 mm 4 m/s 724 mmHg 54%
12:00 +26°C° 0 mm 4 m/s 724 mmHg 48%
13:00 +27°C° 0 mm 5 m/s 723 mmHg 46%
14:00 +27°C° 0 mm 5 m/s 723 mmHg 43%
15:00 +28°C° 0 mm 5 m/s 723 mmHg 41%
16:00 +27°C° 0 mm 5 m/s 723 mmHg 44%
17:00 +26°C° 0 mm 5 m/s 723 mmHg 48%
18:00 +25°C° 0 mm 5 m/s 722 mmHg 51%
19:00 +22°C° 0 mm 5 m/s 723 mmHg 57%
20:00 +20°C° 0 mm 4 m/s 723 mmHg 64%
21:00 +18°C° 0 mm 4 m/s 723 mmHg 70%
22:00 +17°C° 0 mm 3 m/s 723 mmHg 75%
23:00 +16°C° 0 mm 3 m/s 723 mmHg 80%

Après-demain, 17 Mai, Lundi

Heure Température Précipitation Vent Pression Humidité
00:00 +15°C° 0 mm 2 m/s 723 mmHg 86%
01:00 +14°C° 0 mm 2 m/s 723 mmHg 88%
02:00 +14°C° 0 mm 2 m/s 723 mmHg 91%
03:00 +13°C° 0 mm 1 m/s 723 mmHg 93%
04:00 +14°C° 0 mm 1 m/s 723 mmHg 92%
05:00 +14°C° 0 mm 1 m/s 723 mmHg 92%
06:00 +14°C° 0 mm 1 m/s 724 mmHg 91%
07:00 +16°C° 0 mm 1 m/s 724 mmHg 81%
08:00 +18°C° 0 mm 2 m/s 724 mmHg 72%
09:00 +20°C° 0 mm 2 m/s 725 mmHg 62%
10:00 +23°C° 0 mm 2 m/s 725 mmHg 54%
11:00 +24°C° 0 mm 3 m/s 725 mmHg 47%
12:00 +26°C° 0 mm 3 m/s 725 mmHg 39%
13:00 +26°C° 0 mm 3 m/s 725 mmHg 35%
14:00 +27°C° 0 mm 4 m/s 725 mmHg 32%
15:00 +27°C° 0 mm 4 m/s 725 mmHg 28%
16:00 +26°C° 0 mm 4 m/s 725 mmHg 30%
17:00 +25°C° 0 mm 4 m/s 725 mmHg 31%
18:00 +23°C° 0 mm 4 m/s 725 mmHg 32%
19:00 +21°C° 0 mm 4 m/s 725 mmHg 35%
20:00 +19°C° 0 mm 3 m/s 725 mmHg 38%
21:00 +17°C° 0 mm 2 m/s 726 mmHg 41%
22:00 +16°C° 0 mm 2 m/s 726 mmHg 44%
23:00 +15°C° 0 mm 2 m/s 726 mmHg 46%

18 Mai, Mardi

Heure Température Précipitation Vent Pression Humidité
00:00 +14°C° 0 mm 2 m/s 726 mmHg 49%
01:00 +14°C° 0 mm 2 m/s 726 mmHg 51%
02:00 +13°C° 0 mm 2 m/s 726 mmHg 52%
03:00 +12°C° 0 mm 2 m/s 726 mmHg 54%
04:00 +12°C° 0 mm 2 m/s 726 mmHg 55%
05:00 +12°C° 0 mm 2 m/s 726 mmHg 56%
06:00 +12°C° 0 mm 2 m/s 726 mmHg 57%
07:00 +15°C° 0 mm 2 m/s 727 mmHg 49%
08:00 +18°C° 0 mm 3 m/s 727 mmHg 42%
09:00 +20°C° 0 mm 3 m/s 728 mmHg 34%
10:00 +22°C° 0 mm 3 m/s 728 mmHg 32%
11:00 +25°C° 0 mm 3 m/s 728 mmHg 30%
12:00 +26°C° 0 mm 3 m/s 728 mmHg 28%
13:00 +27°C° 0 mm 3 m/s 727 mmHg 27%
14:00 +28°C° 0 mm 3 m/s 727 mmHg 26%
15:00 +28°C° 0 mm 3 m/s 727 mmHg 26%
16:00 +28°C° 0 mm 3 m/s 727 mmHg 28%
17:00 +27°C° 0 mm 3 m/s 727 mmHg 30%
18:00 +26°C° 0 mm 3 m/s 727 mmHg 32%
19:00 +24°C° 0 mm 3 m/s 727 mmHg 36%
20:00 +21°C° 0 mm 2 m/s 727 mmHg 40%
21:00 +18°C° 0 mm 2 m/s 727 mmHg 44%
22:00 +18°C° 0 mm 2 m/s 727 mmHg 45%
23:00 +17°C° 0 mm 2 m/s 727 mmHg 46%

19 Mai, Mercredi

Heure Température Précipitation Vent Pression Humidité
00:00 +16°C° 0 mm 2 m/s 727 mmHg 47%
01:00 +16°C° 0 mm 2 m/s 727 mmHg 48%
02:00 +15°C° 0 mm 2 m/s 726 mmHg 49%
03:00 +15°C° 0 mm 2 m/s 726 mmHg 50%
04:00 +14°C° 0 mm 2 m/s 726 mmHg 51%
05:00 +14°C° 0 mm 2 m/s 726 mmHg 52%
06:00 +14°C° 0 mm 2 m/s 727 mmHg 53%
07:00 +17°C° 0 mm 2 m/s 727 mmHg 47%
08:00 +19°C° 0 mm 2 m/s 727 mmHg 42%
09:00 +22°C° 0 mm 3 m/s 728 mmHg 36%
10:00 +25°C° 0 mm 2 m/s 727 mmHg 33%
11:00 +26°C° 0 mm 2 m/s 727 mmHg 30%
12:00 +28°C° 0 mm 2 m/s 727 mmHg 26%
13:00 +29°C° 0 mm 2 m/s 727 mmHg 25%
14:00 +30°C° 0 mm 2 m/s 727 mmHg 24%
15:00 +30°C° 0 mm 2 m/s 726 mmHg 23%
16:00 +30°C° 0 mm 2 m/s 726 mmHg 25%
17:00 +29°C° 0 mm 2 m/s 726 mmHg 27%
18:00 +29°C° 0 mm 2 m/s 726 mmHg 29%
19:00 +27°C° 0 mm 2 m/s 726 mmHg 33%
20:00 +24°C° 0 mm 2 m/s 726 mmHg 36%
21:00 +22°C° 0 mm 1 m/s 726 mmHg 40%
22:00 +21°C° 0 mm 1 m/s 726 mmHg 42%
23:00 +20°C° 0 mm 1 m/s 726 mmHg 44%

20 Mai, Jeudi

Heure Température Précipitation Vent Pression Humidité
00:00 +19°C° 0 mm 1 m/s 726 mmHg 46%
01:00 +19°C° 0 mm 1 m/s 725 mmHg 47%
02:00 +18°C° 0 mm 1 m/s 725 mmHg 49%
03:00 +18°C° 0 mm 1 m/s 725 mmHg 50%
04:00 +18°C° 0 mm 1 m/s 725 mmHg 52%
05:00 +16°C° 0 mm 1 m/s 725 mmHg 54%
06:00 +16°C° 0 mm 1 m/s 725 mmHg 55%
07:00 +20°C° 0 mm 1 m/s 725 mmHg 50%
08:00 +22°C° 0 mm 1 m/s 726 mmHg 44%
09:00 +24°C° 0 mm 2 m/s 726 mmHg 38%
10:00 +26°C° 0 mm 2 m/s 726 mmHg 35%
11:00 +27°C° 0 mm 2 m/s 726 mmHg 32%
12:00 +29°C° 0 mm 2 m/s 726 mmHg 29%
13:00 +30°C° 0 mm 2 m/s 726 mmHg 26%
14:00 +30°C° 0 mm 2 m/s 725 mmHg 23%
15:00 +31°C° 0 mm 2 m/s 725 mmHg 21%
16:00 +31°C° 0 mm 2 m/s 725 mmHg 22%
17:00 +30°C° 0 mm 2 m/s 724 mmHg 24%
18:00 +30°C° 0 mm 2 m/s 724 mmHg 25%
19:00 +27°C° 0 mm 2 m/s 724 mmHg 30%
20:00 +24°C° 0 mm 2 m/s 724 mmHg 35%
21:00 +21°C° 0 mm 2 m/s 724 mmHg 40%
22:00 +20°C° 0 mm 2 m/s 724 mmHg 44%
23:00 +19°C° 0 mm 2 m/s 724 mmHg 48%
Voir plus

Nous avons besoin de votre consentement

Meteoprog et ses fournisseurs de services peuvent stocker et accéder à des données personnelles telles que des cookies, des identifiants d'appareils ou d'autres technologies similaires sur votre appareil et traiter ces données pour personnaliser le contenu et les publicités, ainsi que pour fournir des fonctionnalités de médias sociaux et analyser le trafic.

  • Stocker et/ou accéder à des informations sur votre appareil

    Des cookies, des identifiants d'appareils ou d'autres informations peuvent être stockés ou accessibles sur votre appareil aux fins indiquées ci-dessus.

  • Annonces et contenus personnalisés, mesure des annonces et des contenus, connaissance de l'audience et développement de produits

    Les annonces et le contenu peuvent être personnalisés en fonction d'un profil. D'autres données peuvent être ajoutées pour mieux personnaliser les annonces et le contenu. Les performances des publicités et du contenu peuvent être mesurées. Il est possible d'obtenir des informations sur le public qui a vu les publicités et le contenu. Ces données peuvent être utilisées pour développer ou améliorer l'expérience de l'utilisateur, les systèmes et les logiciels.

En cliquant sur "J'accepte", vous autorisez l'utilisation de cookies, des identifiants d'appareils, des balises web ou d'autres technologies similaires. Vos paramètres peuvent être modifiés dans le navigateur de votre appareil.

Dans certains cas, des intérêts légitimes peuvent être invoqués plutôt qu'un consentement. Vous pouvez en savoir plus à ce sujet dans notre Politique de confidentialité et de cookies.